Lake of Egypt Weather Center

Moon Phase Calendar



Lake of Egypt Water Level
Online Cameras

 


      

Current Conditions in Goreville
7/5/2022 2:00:15 PM

95°F
Feels Like 108
Clouds
Humidity
66%
Pressure
29.97"
Wind
0
Dew Point
82°F
UV Index
9/10 (Very High)
Visibility
6 mi

Hourly Forecast

Date & Time Tue, Jul 5
2:00 PM
Tue, Jul 5
3:00 PM
Tue, Jul 5
4:00 PM
Tue, Jul 5
5:00 PM
Tue, Jul 5
6:00 PM
Tue, Jul 5
7:00 PM
Tue, Jul 5
8:00 PM
Tue, Jul 5
9:00 PM
Tue, Jul 5
10:00 PM
Tue, Jul 5
11:00 PM
Wed, Jul 6
12:00 AM
Wed, Jul 6
1:00 AM
Wed, Jul 6
2:00 AM
Wed, Jul 6
3:00 AM
Wed, Jul 6
4:00 AM
Wed, Jul 6
5:00 AM
Wed, Jul 6
6:00 AM
Wed, Jul 6
7:00 AM
Wed, Jul 6
8:00 AM
Wed, Jul 6
9:00 AM
Wed, Jul 6
10:00 AM
Wed, Jul 6
11:00 AM
Wed, Jul 6
12:00 PM
Wed, Jul 6
1:00 PM
Wed, Jul 6
2:00 PM
Wed, Jul 6
3:00 PM
Wed, Jul 6
4:00 PM
Wed, Jul 6
5:00 PM
Wed, Jul 6
6:00 PM
Wed, Jul 6
7:00 PM
Wed, Jul 6
8:00 PM
Wed, Jul 6
9:00 PM
Wed, Jul 6
10:00 PM
Wed, Jul 6
11:00 PM
Thu, Jul 7
12:00 AM
Thu, Jul 7
1:00 AM
Thu, Jul 7
2:00 AM
Thu, Jul 7
3:00 AM
Thu, Jul 7
4:00 AM
Thu, Jul 7
5:00 AM
Thu, Jul 7
6:00 AM
Thu, Jul 7
7:00 AM
Thu, Jul 7
8:00 AM
Thu, Jul 7
9:00 AM
Thu, Jul 7
10:00 AM
Thu, Jul 7
11:00 AM
Thu, Jul 7
12:00 PM
Thu, Jul 7
1:00 PM
Condition
Clouds

Clouds

Clouds

Clouds

Clouds

Clouds

Clouds

Clouds

Clouds

Clear

Rain

Rain

Rain

Clear

Clear

Clear

Clear

Clear

Clear

Clear

Clear

Clear

Clear

Clear

Clear

Clear

Clear

Clear

Clear

Clear

Clear

Clouds

Clouds

Clouds

Clouds

Clouds

Clouds

Clouds

Clear

Clear

Clear

Clear

Clear

Clear

Clear

Rain

Clouds

Clouds
Temperature 95°F96°F95°F94°F93°F88°F85°F83°F83°F82°F79°F77°F77°F76°F75°F75°F75°F77°F81°F87°F90°F93°F96°F98°F99°F100°F100°F100°F98°F93°F88°F86°F85°F83°F82°F81°F80°F80°F80°F80°F80°F81°F84°F88°F91°F88°F91°F95°F
Feels Like 108°F108°F108°F106°F105°F96°F91°F89°F88°F86°F79°F79°F78°F77°F76°F76°F76°F78°F86°F93°F97°F100°F103°F105°F106°F105°F105°F104°F104°F101°F94°F91°F89°F87°F85°F84°F83°F80°F80°F80°F80°F84°F89°F94°F98°F94°F97°F101°F
Cloudiness 40%39%42%47%47%48%24%17%13%9%8%8%13%10%7%6%5%4%0%0%0%0%0%0%1%3%4%5%5%4%7%18%24%28%29%33%18%11%8%6%5%4%0%0%3%9%20%27%
Visibility 6 mi6 mi6 mi6 mi6 mi6 mi6 mi6 mi6 mi6 mi6 mi6 mi6 mi6 mi6 mi6 mi6 mi6 mi6 mi6 mi6 mi6 mi6 mi6 mi6 mi6 mi6 mi6 mi6 mi6 mi6 mi6 mi6 mi6 mi6 mi6 mi6 mi6 mi6 mi6 mi6 mi6 mi6 mi6 mi6 mi6 mi6 mi6 mi
Precipitation 0%0%0%0%0%1%4%1%1%1%20%20%25%23%23%15%13%9%0%0%0%0%0%0%0%0%0%0%0%0%0%0%0%0%0%0%0%0%0%0%0%0%0%0%4%28%4%4%
Humidity 66%61%58%58%57%64%69%68%71%73%81%84%85%86%86%86%86%84%75%60%54%48%44%40%37%35%34%33%39%49%60%61%62%64%66%68%69%70%69%69%71%72%66%58%52%57%49%43%
Dew Point 82°F80°F78°F77°F76°F74°F73°F72°F72°F72°F73°F72°F72°F71°F71°F70°F70°F72°F73°F72°F71°F71°F71°F70°F69°F68°F67°F66°F69°F72°F72°F71°F70°F70°F70°F69°F69°F69°F69°F69°F69°F71°F72°F72°F71°F70°F69°F69°F
Pressure 29.97"29.97"29.94"29.91"29.91"29.88"29.88"29.88"29.88"29.88"29.91"29.91"29.91"29.91"29.91"29.91"29.94"29.94"29.94"29.94"29.94"29.94"29.94"29.91"29.91"29.88"29.88"29.85"29.83"29.83"29.85"29.85"29.88"29.88"29.88"29.88"29.88"29.88"29.88"29.88"29.88"29.91"29.91"29.94"29.94"29.94"29.91"29.91"
Wind Speed 5.3 mph5.8 mph6.4 mph7 mph10 mph9.1 mph6.2 mph6.8 mph7.2 mph7 mph5.7 mph5.3 mph5.4 mph5.7 mph5.3 mph5.9 mph6.4 mph6.3 mph7.3 mph9.1 mph10 mph10.2 mph10.1 mph9.8 mph9.3 mph8.8 mph8.2 mph7.7 mph8.3 mph8 mph6.4 mph6.9 mph6.8 mph6.9 mph6.3 mph7.1 mph7.5 mph7.7 mph8.9 mph9.7 mph9.9 mph8.9 mph9.9 mph10.5 mph12.8 mph12.9 mph8.2 mph9.5 mph
Wind
Direction
243°
WSW
245°
WSW
231°
SW
216°
SW
223°
SW
214°
SW
187°
S
193°
SSW
203°
SSW
210°
SSW
214°
SW
221°
SW
218°
SW
207°
SSW
215°
SW
217°
SW
220°
SW
212°
SSW
215°
SW
228°
SW
227°
SW
232°
SW
237°
WSW
241°
WSW
248°
WSW
242°
WSW
236°
SW
217°
SW
201°
SSW
208°
SSW
191°
S
201°
SSW
201°
SSW
202°
SSW
202°
SSW
209°
SSW
208°
SSW
214°
SW
206°
SSW
213°
SSW
218°
SW
225°
SW
231°
SW
243°
WSW
243°
WSW
246°
WSW
266°
W
257°
WSW

Daily Forecast

Date High Low Precip. Humidity
Today
Jul 5

Rain
96 °F
75 °F
20%
62%
Wednesday
Jul 6

Rain
100 °F
75 °F
25%
40%
Thursday
Jul 7

Rain
97 °F
76 °F
71%
43%
Friday
Jul 8

Rain
101 °F
72 °F
99%
40%
Saturday
Jul 9

Rain
86 °F
71 °F
100%
70%
Sunday
Jul 10

Clear
86 °F
67 °F
0%
41%
Monday
Jul 11

Clouds
95 °F
64 °F
0%
39%
Tuesday
Jul 12

Rain
92 °F
73 °F
70%
50%
Wednesday
Jul 13

Clear
88 °F
68 °F
0%
43%
Thursday
Jul 14

Clouds
91 °F
66 °F
0%
42%
Friday
Jul 15

Rain
96 °F
70 °F
99%
64%
Saturday
Jul 16

Rain
93 °F
68 °F
100%
55%
Sunday
Jul 17

Rain
85 °F
68 °F
91%
60%
Monday
Jul 18

Clear
87 °F
63 °F
9%
36%
Tuesday
Jul 19

Clear
93 °F
63 °F
0%
52%
Wednesday
Jul 20

Rain
87 °F
73 °F
94%
63%

Temperature 8-14 Day Outlook



Precipitation 8-14 Day Outlook




Quick Links
Lake of Egypt News
Lake of Egypt Photos
Lake of Egypt Videos




About Us
Contact Us
Site Map
Search Site
Advertise With Us
   
Egypt.USLakes.info
THE LAKE OF EGYPT WEBSITE

Copyright 2022, Lakes Online
Privacy    |    Legal